Regional Weather Roundup
Issued by NWS

Home | Current Version | Previous Version | Graphics & Text | Print | Product List | Glossary Off
Versions: 1 2 3 4 5 6 7 8 9 10 11 12 13 14 15 16 17 18 19 20 21 22 23 24 25 26 27 28 29 30 31 32 33 34 35 36 37 38 39 40 41 42 43 44 45 46 47 48 49 50

000
ASUS43 KTOP 261859
RWRKS

WEATHER ROUNDUP FOR KANSAS
NATIONAL WEATHER SERVICE GOODLAND KS
100 PM CST FRI DEC 26 2014

NOTE:  "FAIR" INDICATES FEW OR NO CLOUDS BELOW 12,000 FEET WITH NO
SIGNIFICANT WEATHER AND/OR OBSTRUCTIONS TO VISIBILITY.

KSZ001>006-013>018-027>032-041>047-262000-
NORTHWEST KANSAS

CITY           SKY/WX    TMP DP  RH WIND       PRES   REMARKS
GOODLAND       LGT SNOW  23  19  85 N18       29.94F FOG     WCI   9
HAYS           CLOUDY    28  18  64 N18       29.96F WCI  16
HILL CITY      CLOUDY    29  21  72 N18       29.98F WCI  16
RUSSELL        CLOUDY    30  26  85 N14       29.95F WCI  19
$$

KSZ061>065-074>080-084>089-262000-
SOUTHWEST KANSAS

CITY           SKY/WX    TMP DP  RH WIND       PRES   REMARKS
DODGE CITY     CLOUDY    28  25  88 N14       29.96R FOG     WCI  17
ELKHART          N/A     27  20  75 N10         N/A  WCI  17
GARDEN CITY    FLURRIES  26  24  92 NE17      29.93F WCI  13
GREAT BEND     CLOUDY    30  23  74 N13       29.97S WCI  20
LIBERAL        CLOUDY    30  21  69 N12       29.95S WCI  21
$$

KSZ066>073-081>083-090>101-262000-
SOUTHEAST KANSAS

CITY           SKY/WX    TMP DP  RH WIND       PRES   REMARKS
CHANUTE        CLOUDY    54  45  71 SW12      29.90F
COFFEYVILLE    PTSUNNY   60  47  61 S18G28    29.89F
HUTCHINSON     CLOUDY    34  30  85 N12G17    29.94F WCI  25
MEDICINE LODGE   N/A     34  31  88 N13       29.91F WCI  25
NEWTON         CLOUDY    36  28  75 N12       29.94F WCI  27
PARSONS        CLOUDY    57  47  69 S10       29.91F
WICHITA INTL   CLOUDY    40  32  73 N10       29.92F WCI  33
WICHITA JABRA  CLOUDY    40  32  73 N10       29.92F WCI  33
WINFIELD       FAIR      46  36  68 N13       29.91F
$$

KSZ007>012-019>026-033>040-048>060-102>105-262000-
NORTHEAST KANSAS

CITY           SKY/WX    TMP DP  RH WIND       PRES   REMARKS
CONCORDIA      CLOUDY    32  28  85 NE12      29.97S WCI  23
EMPORIA        CLOUDY    42  33  70 NW7       29.91F
LAWRENCE       CLOUDY    45  34  65 NW9       29.92F
MANHATTAN      CLOUDY    35  33  92 NE9       29.96R FOG
OLATHE IND     CLOUDY    52  42  69 SW14      29.91F
OLATHE EXE     CLOUDY    54  43  66 SW9       29.89F
SALINA         CLOUDY    34  29  82 N13       29.97F WCI  25
TOPEKA BILLARD CLOUDY    41  34  76 N5        29.94F HAZE
TOPEKA FORBES  CLOUDY    41  33  73 N7        29.92F
$$


USA.gov is the U.S. government's official web portal to all federal, state and local government web resources and services.